Weather reports worldwide

Advertisment
Coleshill, United Kingdom (3535): temperature & dewpoint: 06.11.2019 15:00:00 - 12.11.2019 15:00:00 (GMT)Coleshill, United Kingdom (3535): temperature -20cm & temperature -100cm: 06.11.2019 15:00:00 - 12.11.2019 15:00:00 (GMT)Coleshill, United Kingdom (3535): wind speed & gusts: 06.11.2019 15:00:00 - 12.11.2019 15:00:00 (GMT)Coleshill, United Kingdom (3535): wind direction: 06.11.2019 15:00:00 - 12.11.2019 15:00:00 (GMT)Coleshill, United Kingdom (3535): reduced air pressure: 06.11.2019 15:00:00 - 12.11.2019 15:00:00 (GMT)Coleshill, United Kingdom (3535): visibility: 06.11.2019 15:00:00 - 12.11.2019 15:00:00 (GMT)Coleshill, United Kingdom (3535): precipitation: 06.11.2019 15:00:00 - 12.11.2019 15:00:00 (GMT)
Date & Time tt [°C] td [°C] tt -20cm [°C] tt -100cm [°C] ff [km/h] ff [kn] fx [km/h] fx [kn] dd ppp [hPa] vv [km] rr [mm]
12.11.2019 15:00:00 7,4 5,1 - - 15 8 - - W 995,2 45 0,0
12.11.2019 14:00:00 6,9 5,5 - - 21 11 - - W 994,6 30 0,2
12.11.2019 13:00:00 6,2 4,1 - - 15 8 - - WSW 994,3 11 0,0
12.11.2019 12:00:00 6,5 3,2 - - 21 11 - - WSW 994,2 50 0,0
12.11.2019 11:00:00 5,9 3,4 - - 13 7 - - SW 994,7 45 0,0
12.11.2019 10:00:00 4,7 3,1 - - 11 6 - - SW 995,0 12 0,4
12.11.2019 09:00:00 4,7 1,8 7,7 10,2 18 10 - - SSW 995,2 - 0,0
12.11.2019 08:00:00 3,8 1,4 - - 13 7 - - SW 995,7 27 0,0
12.11.2019 07:00:00 3,1 1,3 - - 11 6 - - SW 996,3 30 0,0
12.11.2019 06:00:00 3,0 1,2 - - 11 6 - - SW 997,1 27 0,0
12.11.2019 05:00:00 3,2 1,3 - - 11 6 - - SW 997,5 35 0,0
12.11.2019 04:00:00 3,1 1,1 - - 11 6 - - SW 997,8 30 0,0
12.11.2019 03:00:00 3,4 1,2 - - 11 6 - - SW 998,1 40 0,0
12.11.2019 02:00:00 3,6 1,6 - - 11 6 - - SW 998,6 40 0,0
12.11.2019 01:00:00 3,9 1,9 - - 11 6 - - SW 998,8 35 0,0
12.11.2019 00:00:00 3,7 1,8 - - 9 5 - - SW 999,1 29 0,0
11.11.2019 23:00:00 4,0 1,8 - - 11 6 - - SW 999,4 30 0,0
11.11.2019 22:00:00 3,8 1,5 - - 8 4 - - SW 999,6 35 0,0
11.11.2019 21:00:00 5,1 1,7 - - 16 9 - - WSW 999,7 35 0,0
11.11.2019 20:00:00 5,1 1,7 - - 13 7 - - WSW 999,7 30 0,0
11.11.2019 19:00:00 5,4 2,2 - - 15 8 - - WSW 999,7 24 0,0
11.11.2019 18:00:00 5,9 2,5 - - 13 7 - - WSW 999,9 20 0,0
11.11.2019 17:00:00 6,7 2,7 - - 21 11 - - WSW 999,7 24 0,0
11.11.2019 16:00:00 7,4 2,9 - - 18 10 - - WSW 999,4 30 0,0
11.11.2019 15:00:00 7,7 3,3 - - 18 10 - - W 999,5 35 0,0
11.11.2019 14:00:00 8,0 3,1 - - 21 11 - - W 999,8 30 0,0
11.11.2019 13:00:00 8,3 2,6 - - 26 14 46 25 W 1000,0 35 0,0
11.11.2019 12:00:00 8,3 3,1 - - 24 13 - - W 1000,3 16 0,0
11.11.2019 11:00:00 7,9 3,8 - - 21 11 - - W 1000,5 30 0,0
11.11.2019 10:00:00 6,4 3,7 - - 15 8 - - W 1000,6 40 0,0
11.11.2019 09:00:00 6,1 3,6 8,0 10,4 16 9 - - W 1000,3 30 0,0
11.11.2019 08:00:00 5,4 3,6 - - 13 7 - - WSW 1000,1 30 0,0
11.11.2019 07:00:00 5,3 3,7 - - 15 8 - - W 999,7 19 0,0
11.11.2019 06:00:00 5,8 3,7 - - 18 10 - - W 999,2 50 0,0
11.11.2019 05:00:00 6,3 4,6 - - 18 10 - - W 998,2 45 0,6
11.11.2019 04:00:00 6,0 5,9 - - 13 7 - - SSE 998,8 3,5 0,8
11.11.2019 03:00:00 5,8 5,6 - - 13 7 - - SSE 1000,8 5 2,0
11.11.2019 02:00:00 5,6 5,3 - - 15 8 - - S 1002,9 4,2 1,0
11.11.2019 01:00:00 5,1 4,6 - - 13 7 - - SSE 1004,4 8 0,4
11.11.2019 00:00:00 4,9 4,5 - - 13 7 - - SSE 1006,4 10 0,6
10.11.2019 23:00:00 4,7 4,0 - - 9 5 - - SSE 1008,7 12 0,2
10.11.2019 22:00:00 4,7 4,0 - - 8 4 - - S 1010,3 17 0,0
10.11.2019 21:00:00 4,4 3,8 - - 8 4 - - SSE 1011,0 12 0,0
10.11.2019 20:00:00 4,8 3,9 - - 8 4 - - S 1011,4 15 0,0
10.11.2019 19:00:00 4,9 3,8 - - 5 3 - - SSE 1011,9 29 0,0
10.11.2019 18:00:00 4,3 3,7 - - 5 3 - - S 1012,5 25 0,0
10.11.2019 17:00:00 4,5 3,1 - - 4 2 - - S 1013,8 30 0,0
10.11.2019 16:00:00 6,6 3,9 - - 2 1 - - S 1014,6 45 0,0
10.11.2019 15:00:00 7,7 4,0 - - 2 1 - - N 1015,1 40 0,0
10.11.2019 14:00:00 7,8 3,7 - - 8 4 - - NE 1014,8 50 0,0
10.11.2019 13:00:00 7,6 3,4 - - 8 4 - - NE 1015,0 30 0,0
10.11.2019 12:00:00 7,2 3,2 - - 8 4 - - NNE 1014,9 40 0,0
10.11.2019 11:00:00 6,4 2,8 - - 13 7 - - N 1015,6 35 0,0
10.11.2019 10:00:00 5,2 2,0 - - 15 8 - - N 1015,1 50 0,0
10.11.2019 09:00:00 5,1 2,0 8,0 10,7 15 8 - - N 1014,4 40 0,0
10.11.2019 08:00:00 3,8 1,3 - - 16 9 - - N 1013,5 50 0,0
10.11.2019 07:00:00 2,6 0,8 - - 13 7 - - N 1012,6 45 0,0
10.11.2019 06:00:00 3,4 1,2 - - 15 8 - - N 1011,4 45 0,0
10.11.2019 05:00:00 4,0 1,7 - - 18 10 - - N 1010,6 50 0,0
10.11.2019 04:00:00 4,7 2,7 - - 21 11 - - N 1009,6 45 0,0
10.11.2019 03:00:00 4,7 3,5 - - 21 11 - - NNE 1008,5 30 0,0
10.11.2019 02:00:00 4,4 3,6 - - 18 10 - - NNE 1007,4 22 0,6
10.11.2019 01:00:00 4,3 3,4 - - 16 9 - - N 1006,4 22 0,6
10.11.2019 00:00:00 4,3 3,7 - - 13 7 - - NNE 1005,7 9 0,6
09.11.2019 23:00:00 3,7 3,2 - - 16 9 - - NNE 1004,9 7 1,8
09.11.2019 22:00:00 3,7 3,2 - - 16 9 - - NE 1004,1 4,9 1,6
09.11.2019 21:00:00 4,0 3,4 - - 16 9 - - NE 1003,5 9 0,6
09.11.2019 20:00:00 4,3 3,8 - - 13 7 - - NE 1003,1 6 1,2
09.11.2019 19:00:00 4,2 3,7 - - 8 4 - - NE 1003,0 8 1,2
09.11.2019 18:00:00 3,9 3,6 - - 8 4 - - NE 1002,8 7 1,2
09.11.2019 17:00:00 3,9 3,3 - - 8 4 - - ENE 1002,7 8 1,0
09.11.2019 16:00:00 3,9 3,3 - - 5 3 - - ESE 1002,5 8 1,0
09.11.2019 15:00:00 4,0 3,4 - - 13 7 - - E 1002,5 6 0,6
09.11.2019 14:00:00 3,9 3,1 - - 13 7 - - ESE 1003,1 9 0,6
09.11.2019 13:00:00 4,1 3,1 - - 11 6 - - E 1003,7 10 0,0
09.11.2019 12:00:00 3,8 2,7 - - 9 5 - - SE 1004,6 14 0,0
09.11.2019 11:00:00 3,4 2,9 - - 9 5 - - SE 1005,5 14 0,2
09.11.2019 10:00:00 2,2 2,2 - - 11 6 - - SSE 1006,2 8 0,0
09.11.2019 09:00:00 0,6 0,6 8,7 10,9 8 4 - - SSE 1007,2 2,9 0,0
09.11.2019 08:00:00 -0,1 -0,1 - - 8 4 - - SSE 1007,9 3,7 0,0
09.11.2019 07:00:00 -0,7 -0,7 - - 5 3 - - S 1008,7 2,7 0,0
09.11.2019 06:00:00 -1,2 -1,2 - - 4 2 - - S 1009,4 0,2 0,0
09.11.2019 05:00:00 -0,6 -0,6 - - 8 4 - - S 1009,9 1,9 0,0
09.11.2019 04:00:00 -1,1 -1,2 - - 4 2 - - SSE 1010,6 0,4 0,0
09.11.2019 03:00:00 -0,9 -1,1 - - 4 2 - - SSW 1011,3 2,8 0,0
09.11.2019 02:00:00 0,1 -0,1 - - 2 1 - - W 1011,9 2,6 0,0
09.11.2019 01:00:00 -0,1 -0,4 - - 4 2 - - WSW 1012,6 3,3 0,0
09.11.2019 00:00:00 1,2 1,1 - - 2 1 - - W 1012,6 7 0,0
08.11.2019 23:00:00 2,0 1,4 - - 2 1 - - NW 1012,4 8 0,0
08.11.2019 22:00:00 2,5 1,9 - - 5 3 - - NW 1012,7 9 0,0
08.11.2019 21:00:00 3,7 3,0 - - 4 2 - - NW 1012,5 16 0,0
08.11.2019 20:00:00 4,6 3,5 - - 9 5 - - WNW 1012,2 29 0,0
08.11.2019 19:00:00 5,0 3,5 - - 11 6 - - NW 1012,1 30 0,0
08.11.2019 18:00:00 5,1 3,7 - - 11 6 - - NW 1011,8 30 0,4
08.11.2019 17:00:00 5,5 4,3 - - 16 9 - - NNW 1011,3 50 0,2
08.11.2019 16:00:00 6,1 4,0 - - 18 10 - - N 1010,5 16 0,0
08.11.2019 15:00:00 7,4 3,1 - - 18 10 - - NW 1009,4 50 0,0
08.11.2019 14:00:00 7,9 3,4 - - 21 11 - - NNW 1009,0 50 0,0
08.11.2019 13:00:00 8,0 4,3 - - 16 9 - - NNW 1008,6 45 0,0
08.11.2019 12:00:00 7,6 3,9 - - 18 10 - - NNW 1008,8 40 0,0
08.11.2019 11:00:00 7,1 3,6 - - 21 11 - - NNW 1008,6 40 0,0
08.11.2019 10:00:00 6,5 3,5 - - 21 11 - - NNW 1008,1 28 0,0
08.11.2019 09:00:00 5,7 3,7 9,5 11,0 18 10 - - NNW 1007,2 35 0,0
08.11.2019 08:00:00 5,7 3,9 - - 18 10 - - N 1006,2 27 0,0
08.11.2019 07:00:00 6,0 4,4 - - 21 11 - - N 1004,8 35 0,0
08.11.2019 06:00:00 6,4 5,4 - - 24 13 - - N 1003,7 27 0,4
08.11.2019 05:00:00 6,6 6,1 - - 21 11 - - N 1002,4 18 1,0
08.11.2019 04:00:00 6,5 6,3 - - 15 8 - - N 1001,1 11 1,6
08.11.2019 03:00:00 6,5 5,6 - - 11 6 - - N 1000,4 40 0,0
08.11.2019 02:00:00 6,3 5,6 - - 9 5 - - N 999,4 50 0,0
08.11.2019 01:00:00 5,7 5,2 - - 4 2 - - NW 998,7 6 0,0
08.11.2019 00:00:00 5,2 4,3 - - 5 3 - - W 998,0 8 0,0
07.11.2019 23:00:00 6,0 4,7 - - 8 4 - - W 997,2 9 0,0
07.11.2019 22:00:00 5,7 4,5 - - 8 4 - - W 996,7 12 0,0
07.11.2019 21:00:00 6,3 5,3 - - 5 3 - - W 996,1 16 0,0
07.11.2019 20:00:00 6,3 5,5 - - 4 2 - - WSW 995,2 15 0,0
07.11.2019 19:00:00 6,6 5,4 - - 4 2 - - WNW 994,6 40 0,0
07.11.2019 18:00:00 6,0 4,5 - - 4 2 - - WSW 994,1 45 0,0
07.11.2019 17:00:00 6,8 4,6 - - 5 3 - - WSW 993,3 50 0,0
07.11.2019 16:00:00 7,4 5,4 - - 13 7 - - W 992,4 50 0,0
07.11.2019 15:00:00 7,3 5,0 - - 11 6 - - W 992,0 45 0,2
07.11.2019 14:00:00 8,0 5,5 - - 8 4 - - W 991,6 14 0,0
07.11.2019 13:00:00 8,2 5,2 - - 13 7 - - WSW 991,2 35 0,0
07.11.2019 12:00:00 7,8 5,4 - - 15 8 - - WSW 990,9 50 0,0
07.11.2019 11:00:00 7,5 6,2 - - 8 4 - - WSW 990,6 40 0,0
07.11.2019 10:00:00 6,7 6,1 - - 8 4 - - SW 990,4 17 0,0
07.11.2019 09:00:00 6,1 5,7 9,5 11,2 5 3 - - SW 990,4 15 0,0
07.11.2019 08:00:00 5,6 5,6 - - 5 3 - - WSW 990,1 7 0,2
07.11.2019 07:00:00 5,5 5,4 - - 2 1 - - N 989,8 3,8 0,0
07.11.2019 06:00:00 5,5 5,4 - - 4 2 - - NNW 989,6 3,5 0,2
07.11.2019 05:00:00 5,7 5,5 - - 2 1 - - E 990,1 7 0,0
07.11.2019 04:00:00 5,7 5,5 - - 4 2 - - ESE 990,6 4,7 2,2
07.11.2019 03:00:00 5,8 5,5 - - 11 6 - - ESE 991,4 5 1,6
07.11.2019 02:00:00 6,0 5,6 - - 11 6 - - SE 992,1 4,7 0,6
07.11.2019 01:00:00 6,0 5,4 - - 13 7 - - SE 993,0 7 0,0
07.11.2019 00:00:00 6,2 5,6 - - 11 6 - - SE 993,7 10 0,0
06.11.2019 23:00:00 6,1 5,7 - - 9 5 - - SE 994,7 9 0,2
06.11.2019 22:00:00 6,4 5,9 - - 11 6 - - SE 995,6 9 0,0
06.11.2019 21:00:00 6,4 6,0 - - 9 5 - - SE 996,7 9 0,0
06.11.2019 20:00:00 6,6 6,3 - - 9 5 - - SE 997,4 6 0,6
06.11.2019 19:00:00 6,6 6,3 - - 11 6 - - SSE 998,5 6 0,2
06.11.2019 18:00:00 6,6 6,1 - - 11 6 - - SSE 999,3 7 0,0
06.11.2019 17:00:00 6,5 5,9 - - 9 5 - - SSE 1000,0 10 0,0
06.11.2019 16:00:00 6,7 5,9 - - 11 6 - - SSE 1000,7 11 0,2
06.11.2019 15:00:00 6,9 5,7 - - 11 6 - - SSE 1001,5 11 0,2

tt = temperature
td = dewpoint
tt -20cm = temperature -20cm
tt -100cm = temperature -100cm
ff = wind speed
fx = gusts
dd = wind direction
ppp = reduced air pressure
vv = visibility
rr = precipitation

Next stations